www.pogodaiklimat.ru

Погода и климат >> Архив погоды >> Того >> Атакпаме


ПОГОДА в Атакпаме

  • Прогноз погоды в Атакпаме
  • Монитор погоды в Атакпаме

АРХИВ ПОГОДЫ в Атакпаме

Время (UTC), дата Ветер
(напр.,м/с)
 
Видим.   Явления Облачность Т
(С)
Тd
(С)
f
(%)
Тe
(С)
Тes
(С)
Комфортность P
(гПа)
Po
(гПа)
Тmin
(С)
Tmax
(С)
R
(мм)
R24
(мм)
S
(см)
06 9.06 З 2 5000 м мгла 9/9 400 м
[Sc]
+23.0 +22.4 96 +31 +31 очень
душно
1013.4 967.4 +22.5
12 9.06 Ю 2 10 км 9/6 480 м
[Cu med, cong Ci sp]
+28.6 +22.7 70 +38 +45 очень
душно
1013.3 967.5
18 9.06 С 2 10 км гроза без осадков 9/6 400 м
[Cb cap Ac As]
+23.8 +22.3 91 +31 +31 очень
душно
1012.8 966.5 +29.1 50
00 10.06 З 1 8000 м 9/9 400 м
[Sc]
+23.0 +22.8 99 +32 +32 очень
душно
1014.4 968.4
06 10.06 З 1 8000 м {дождь} 9/9 400 м
[Sc]
+23.0 +22.2 95 +31 +31 очень
душно
1013.4 967.0 +21.7 56
12 10.06 ЮЗ 1 8000 м слаб. дождь 9/6 400 м
[Sc Ac As]
+26.0 +23.6 87 +35 +40 очень
душно
1013.5 967.3 0.1
18 10.06 Ю 2 8000 м {дождь} 9/1 480 м
[Cu med, cong Ac As]
+26.0 +22.8 83 +35 +35 очень
душно
1011.9 965.8 +27.2 0.1
00 11.06 ЮЗ 2 8000 м {дождь} 9/0
[Ac und Ci sp]
+23.5 +22.0 91 +30 +30 очень
душно
1012.9 966.8 2
06 11.06 СЗ 1 8000 м 9/0
[Ac As Ci sp]
+22.5 +21.5 94 +30 +30 очень
душно
1013.1 967.1 +22.1 2
12 11.06 Ю 2 10 км 9/8 480 м
[Cu med, cong Ci sp]
+28.5 +22.7 71 +38 +41 очень
душно
1013.7 967.7
18 11.06 ЮВ 1 10 км 9/3 400 м
[Cb cap Ci sp]
+28.0 +23.3 76 +38 +38 очень
душно
1011.9 965.9 +31.0
00 12.06 З 3 8000 м 9/3 400 м
[Sc Ci sp]
+23.8 +22.3 91 +31 +31 очень
душно
1012.6 966.7
06 12.06 З 2 400 м туман 9/9 300 м
[Sc]
+22.6 +22.0 96 +30 +30 очень
душно
1013.5 967.4 +22.1
12 12.06 С 1 10 км {туман} 9/5 480 м
[Cu med, cong Ci sp]
+27.5 +20.0 64 +34 +44 очень
душно
1015.2 969.1
18 12.06 З 1 10 км {дождь} 9/1 400 м
[Cu med, cong Ac trans Ci sp]
+26.5 +23.2 82 +36 +36 очень
душно
1012.4 966.2 +29.1 5
00 13.06 штиль 0 10 км 9/5 400 м
[Sc Ac As]
+24.0 +23.2 95 +32 +32 очень
душно
1015.4 969.3
06 13.06 штиль 0 8000 м 9/9 400 м
[St]
+23.5 +22.8 96 +31 +31 очень
душно
1014.9 968.7 +23.0 5
12 13.06 З 1 10 км 9/6 400 м
[Cu med, cong Ci sp]
+30.0 +24.1 71 +42 +50 опасность
перегрева
1014.3 968.4
18 13.06 З 3 10 км 9/3 400 м
[Cu med, cong Ac As]
+25.5 +23.0 86 +34 +34 очень
душно
1012.9 966.7 +31.5
00 14.06 ЮЗ 2 10 км зарница 9/1 400 м
[Cb cap Ac As]
+24.9 +23.7 93 +34 +34 очень
душно
1013.9 968.1
06 14.06 З 1 8000 м в посл. час дождь 9/3 400 м
[Sc Ac As]
+23.5 +22.8 96 +31 +31 очень
душно
1013.9 967.7 +22.3 7
12 14.06 В 2 10 км {туман} 9/6 480 м
[Cu med, cong Ci sp]
+28.2 +23.3 75 +38 +45 очень
душно
1014.2 968.3
18 14.06 В 1 10 км {дождь} 9/3 400 м
[Cu med, cong Ac As]
+24.5 +22.3 88 +32 +32 очень
душно
1012.5 966.2 +28.8 3
00 15.06 штиль 0 8000 м 9/9 400 м
[Sc]
+23.0 +22.1 95 +31 +31 очень
душно
1014.6 968.5
06 15.06 СЗ 1 3000 м дымка 9/9 300 м
[Sc]
+22.8 +22.2 96 +31 +31 очень
душно
1013.7 967.3 +22.2 3
12 15.06 Ю 2 12 км 9/4 480 м
[Cu med, cong Ci sp]
+29.0 +23.3 71 +39 +49 очень
душно
1013.9 967.9
18 15.06 Ю 1 10 км 9/1 480 м
[Cu med, cong Ac As Ci sp]
+28.5 +23.3 73 +38 +38 очень
душно
1012.6 966.6 +30.5
00 16.06 З 1 10 км 9/3 400 м
[Sc Ac und Ci sp]
+24.4 +23.1 92 +32 +32 очень
душно
1015.1 969.1

 

Местоположение метеостанции Атакпаме (Того): широта 7.58 долгота 1.12 высота над уровнем моря 402 м.

В архиве по умолчанию представлена погода в Атакпаме за последнюю неделю. Архивные данные за месяц целиком и за предыдущие месяцы, начиная с января 2011 года, Вы можете получить, выбрав интересующий диапазон дат из раскрывающегося списка и нажав кнопку "Ввод!".


*Определитесь, кто Вы:
робот инопланетянин человек

Внимание! Время в таблицах - всемирное. Для получения местного времени необходимо прибавить поправку, которая равна 0 ч.

Смотрите также архив погоды в соседних городах и на ближайших метеорологических станциях:

Погода в Боиконе (Бенин) (114 км)
Погода в Таблигбо (Того) (119 км)
Погода в Кет-Крачи (Гана) (130 км)
Погода в Хо (Гана) (130 км)
Погода в Сокоде (Того) (156 км)
Погода в Саве (Бенин) (157 км)
Погода в Ломе (Того) (157 км)
Погода в Акатзи (Гана) (166 км)
Погода в Котону (Бенин) (195 км)
Погода в Акюсе (Гана) (198 км)

Пояснения к столбцам:

Ветер - указаны скорость ветра в м/с - средняя за 10 мин, порывы в срок и между сроками (в фигурных скобках) и направление, откуда дует ветер: С - северный, СВ - северо-восточный, В - восточный, ЮВ - юго-восточный, Ю - южный, ЮЗ - юго-западный, З - западный, СЗ - северо-западный.
Видимость - горизонтальная дальность видимости в метрах или километрах. При видимости от 1 до 10 км при отсутствии осадков обычно наблюдается дымка, при ухудшении видимости до 1 км и менее - туман. В сухую погоду видимость может ухудшаться дымом, пылью или мглою.
Явления - указаны атмосферные явления, наблюдавшиеся в срок или в последний час перед сроком; фигурными скобками обозначены явления, наблюдавшиеся между сроками (за 1-3 часа до срока); квадратными скобками обозначены град или гололедные отложения с указанием их диаметра в мм.
Облачность - указаны через наклонную черту общая и нижняя облачность в баллах и высота нижней границы облаков в метрах; квадратными скобками обозначены формы облаков: Ci - перистые, Cs - перисто-слоистые, Cc - перисто-кучевые, Ac - высококучевые, As - высокослоистые, Sc - слоисто-кучевые, Ns - слоисто-дождевые, Cu - кучевые, Cb - кучево-дождевые. Подробнее классификацию облаков см. в Атласе облаков (PDF).
T - Температура воздуха - температура, измеренная на высоте 2 м над землей.
Td - Температура точки росы - температура, при понижении до которой содержащийся в воздухе водяной пар достигнет насыщения.
f - Относительная влажность воздуха - влажноcть воздуха, измеренная на высоте 2 м над землей.
Te - Эффективная температура - температура, которую ощущает одетый по сезону человек в тени. Характеристика душности погоды. При расчете учитывается влияние влажности воздуха и скорости ветра на теплоощущения человека.
Tes - Эффективная температура на солнце - температура, которую ощущает человек, с поправкой на солнечный нагрев. Характеристика знойности погоды. Зависит от высоты солнца над горизонтом, облачности и скорости ветра. Ночью, в пасмурную погоду, а также при ветре 12 м/с и более поправка равна нулю.
P - Атмосферное давление - приведенное к уровню моря атмосферное давление.
Po - Атмосферное давление - измеренное на уровне метеостанции атмосферное давление.
Tmin - Минимальная температура - минимум температуры воздуха на высоте 2 м над землей.
Tmax - Максимальная температура - максимум температуры воздуха на высоте 2 м над землей.
R - Количество осадков - Количество выпавших осадков за период времени, мм. При наведении курсора мыши на число - период времени, за который выпало указанное количество осадков.
R24 - Количество осадков - Количество выпавших осадков за 24 часа, мм.
S - Снежный покров - Высота снежного покрова, см. При наведении курсора мыши на число - состояние снежного покрова и степень покрытия местности в баллах.